Gilze-Rijen, Netherlands

5:22 PM CEST on April 24, 2018 (GMT +0200)
Gilze-Rijen Air Base

Weather History for EHGR - February, 2013

Change the Weather History Date:

Wednesday, February 27, 2013

  Actual Average Record
Temperature  
Mean Temperature 35 °F -  
Max Temperature 37 °F 48 °F 60 °F (2003)
Min Temperature 33 °F 35 °F 17 °F (2018)
Degree Days  
Heating Degree Days 30    
Moisture  
Dew Point 32 °F    
Average Humidity 93    
Maximum Humidity 100    
Minimum Humidity 87    
Precipitation  
Precipitation 0.00 in - - ()
Sea Level Pressure  
Sea Level Pressure 30.48 in    
Wind  
Wind Speed 10 mph ()    
Max Wind Speed 14 mph    
Max Gust Speed 21 mph    
Visibility 3.9 miles    
Events      
Averages and records for this station are not official NWS values.
T = Trace of Precipitation, MM = Missing Value Source: Averaged Metar Reports

Daily Weather History Graph

Daily Weather History Graph

Search for Another Location

Airport or City:

Astronomy

Feb. 27, 2013 Rise Set
Actual Time 7:29 AM CET 6:17 PM CET
Civil Twilight 6:56 AM CET 6:50 PM CET
Nautical Twilight 6:17 AM CET 7:29 PM CET
Astronomical Twilight 5:38 AM CET 8:08 PM CET
Moon 8:43 PM CET (2/27) 7:39 AM CET (2/27)
Length of Visible Light 11h 54m
Length of Day
10h 47m
Full, 97% of the Moon is Illuminated
Feb 27
Full
Mar 4
Last Quarter
Mar 11
New
Mar 19
First Quarter
Mar 27
Full

Hourly Weather History & Observations

Time (CET) Temp. Windchill Dew Point Humidity Pressure Visibility Wind Dir Wind Speed Gust Speed Precip Events Conditions
12:06 AM 37.4 °F 28.9 °F 35.6 °F 93% 30.48 in - NE 13.8 mph - N/A   Overcast
12:25 AM 37.4 °F 29.3 °F 35.6 °F 93% 30.51 in - NE 12.7 mph - N/A   Overcast
12:45 AM 35.6 °F 27.1 °F 33.8 °F 93% 30.51 in - NE 12.7 mph - N/A   Overcast
12:55 AM 35.6 °F 27.1 °F 35.6 °F 100% 30.48 in - NNE 12.7 mph - N/A   Overcast
1:09 AM 35.6 °F 27.5 °F 33.8 °F 93% 30.48 in - ENE 11.5 mph - N/A   Overcast
1:25 AM 35.6 °F 27.5 °F 33.8 °F 93% 30.51 in - NE 11.5 mph - N/A   Overcast
1:55 AM 33.8 °F 25.3 °F 33.8 °F 100% 30.51 in 1.7 mi NE 11.5 mph - N/A   Overcast
2:11 AM 33.8 °F 26.4 °F 33.8 °F 100% 30.51 in 1.4 mi NE 9.2 mph - N/A   Overcast
2:25 AM 33.8 °F 25.3 °F 33.8 °F 100% 30.51 in 1.2 mi NE 11.5 mph - N/A   Overcast
2:50 AM 33.8 °F 24.8 °F 33.8 °F 100% 30.51 in 1.1 mi ENE 12.7 mph - N/A   Overcast
2:55 AM 33.8 °F 24.8 °F 33.8 °F 100% 30.51 in 1.2 mi ENE 12.7 mph - N/A   Overcast
3:25 AM 33.8 °F 24.8 °F 32.0 °F 93% 30.48 in 1.6 mi ENE 12.7 mph - N/A   Overcast
3:55 AM 33.8 °F 26.4 °F 32.0 °F 93% 30.48 in - NE 9.2 mph - N/A   Overcast
4:25 AM 33.8 °F 25.8 °F 32.0 °F 93% 30.48 in 1.8 mi NE 10.4 mph - N/A   Overcast
4:55 AM 33.8 °F 24.8 °F 32.0 °F 93% 30.48 in 1.6 mi NE 12.7 mph - N/A   Overcast
5:25 AM 33.8 °F 25.3 °F 32.0 °F 93% 30.48 in 1.9 mi NE 11.5 mph - N/A   Overcast
5:55 AM 33.8 °F 24.8 °F 32.0 °F 93% 30.48 in 1.7 mi ENE 12.7 mph - N/A   Overcast
6:25 AM 33.8 °F 24.8 °F 32.0 °F 93% 30.48 in 1.6 mi NE 12.7 mph - N/A   Overcast
6:55 AM 33.8 °F 25.3 °F 32.0 °F 93% 30.48 in 1.7 mi NE 11.5 mph - N/A   Overcast
7:25 AM 33.8 °F 26.4 °F 32.0 °F 93% 30.48 in 1.5 mi ENE 9.2 mph - N/A   Overcast
7:55 AM 33.8 °F 26.4 °F 32.0 °F 93% 30.48 in 1.6 mi NE 9.2 mph - N/A   Overcast
8:25 AM 33.8 °F 24.8 °F 32.0 °F 93% 30.48 in 1.7 mi NE 12.7 mph - N/A   Overcast
8:36 AM 33.8 °F 25.8 °F 32.0 °F 93% 30.51 in - NE 10.4 mph - N/A   Overcast
8:55 AM 33.8 °F 25.3 °F 32.0 °F 93% 30.51 in - NE 11.5 mph - N/A   Overcast
9:25 AM 33.8 °F 25.8 °F 32.0 °F 93% 30.51 in 1.8 mi NE 10.4 mph - N/A   Overcast
9:55 AM 33.8 °F 26.4 °F 32.0 °F 93% 30.51 in 1.6 mi ENE 9.2 mph - N/A   Overcast
10:25 AM 33.8 °F 25.8 °F 32.0 °F 93% 30.51 in - NE 10.4 mph - N/A   Overcast
10:40 AM 33.8 °F 25.8 °F 32.0 °F 93% 30.51 in 3.1 mi NE 10.4 mph - N/A   Overcast
10:55 AM 33.8 °F 25.8 °F 32.0 °F 93% 30.51 in 3.1 mi NE 10.4 mph - N/A   Overcast
11:25 AM 33.8 °F 25.3 °F 32.0 °F 93% 30.51 in 3.7 mi NE 11.5 mph - N/A   Overcast
11:55 AM 33.8 °F 25.8 °F 32.0 °F 93% 30.51 in 3.7 mi NE 10.4 mph - N/A   Overcast
12:25 PM 33.8 °F 25.3 °F 32.0 °F 93% 30.51 in 3.7 mi NE 11.5 mph - N/A   Overcast
12:55 PM 33.8 °F 25.8 °F 32.0 °F 93% 30.51 in 5.0 mi NE 10.4 mph - N/A   Overcast
12:56 PM 33.8 °F 25.8 °F 32.0 °F 93% 30.51 in 5.0 mi NE 10.4 mph - N/A   Overcast
1:01 PM 33.8 °F 25.8 °F 32.0 °F 93% 30.51 in 5.0 mi ENE 10.4 mph - N/A   Overcast
1:25 PM 33.8 °F 25.8 °F 32.0 °F 93% 30.48 in 4.3 mi NE 10.4 mph - N/A   Overcast
1:55 PM 33.8 °F 25.8 °F 32.0 °F 93% 30.48 in 4.3 mi NE 10.4 mph - N/A   Overcast
2:25 PM 33.8 °F 25.8 °F 32.0 °F 93% 30.48 in 4.3 mi ENE 10.4 mph - N/A   Overcast
2:29 PM 33.8 °F 25.8 °F 32.0 °F 93% 30.48 in 5.0 mi ENE 10.4 mph - N/A   Overcast
2:45 PM 33.8 °F 26.4 °F 32.0 °F 93% 30.48 in 5.0 mi NE 9.2 mph - N/A   Overcast
2:49 PM 33.8 °F 25.8 °F 32.0 °F 93% 30.48 in 5.0 mi NE 10.4 mph - N/A   Overcast
2:55 PM 33.8 °F 25.8 °F 32.0 °F 93% 30.48 in 5.6 mi NE 10.4 mph - N/A   Overcast
3:25 PM 33.8 °F 25.3 °F 32.0 °F 93% 30.48 in 5.0 mi ENE 11.5 mph - N/A   Overcast
3:38 PM 33.8 °F 25.8 °F 32.0 °F 93% 30.48 in 5.0 mi NE 10.4 mph - N/A   Overcast
3:46 PM 33.8 °F 24.8 °F 32.0 °F 93% 30.48 in 4.3 mi NE 12.7 mph - N/A   Overcast
3:55 PM 33.8 °F 24.8 °F 32.0 °F 93% 30.48 in 5.0 mi ENE 12.7 mph - N/A   Overcast
4:08 PM 33.8 °F 25.3 °F 32.0 °F 93% 30.48 in 5.0 mi NE 11.5 mph - N/A   Overcast
4:25 PM 33.8 °F 25.3 °F 32.0 °F 93% 30.48 in 5.0 mi NE 11.5 mph - N/A   Overcast
4:55 PM 33.8 °F 25.8 °F 32.0 °F 93% 30.45 in 5.0 mi NE 10.4 mph - N/A   Overcast
5:25 PM 33.8 °F 25.8 °F 32.0 °F 93% 30.48 in 5.0 mi ENE 10.4 mph - N/A   Overcast
5:39 PM 33.8 °F 25.8 °F 32.0 °F 93% 30.45 in 5.0 mi NE 10.4 mph - N/A   Overcast
5:51 PM 33.8 °F 26.4 °F 32.0 °F 93% 30.45 in 5.0 mi NE 9.2 mph - N/A   Overcast
5:55 PM 33.8 °F 26.4 °F 32.0 °F 93% 30.45 in 4.3 mi ENE 9.2 mph - N/A   Overcast
6:25 PM 33.8 °F 27.0 °F 32.0 °F 93% 30.45 in 5.0 mi ENE 8.1 mph - N/A   Overcast
6:38 PM 33.8 °F 27.0 °F 32.0 °F 93% 30.45 in 5.0 mi East 8.1 mph - N/A   Overcast
6:55 PM 33.8 °F 27.0 °F 32.0 °F 93% 30.45 in 5.0 mi ENE 8.1 mph - N/A   Overcast
7:25 PM 33.8 °F 27.7 °F 30.2 °F 87% 30.45 in 5.6 mi ENE 6.9 mph - N/A   Overcast
7:55 PM 33.8 °F 27.0 °F 30.2 °F 87% 30.45 in 5.6 mi ENE 8.1 mph - N/A   Overcast
8:25 PM 33.8 °F 27.0 °F 30.2 °F 87% 30.45 in 5.6 mi ENE 8.1 mph 20.7 mph N/A   Overcast
8:55 PM 33.8 °F 25.8 °F 30.2 °F 87% 30.45 in 5.6 mi East 10.4 mph - N/A   Overcast
9:25 PM 33.8 °F 27.0 °F 30.2 °F 87% 30.45 in 5.0 mi East 8.1 mph - N/A   Overcast
9:55 PM 33.8 °F 25.8 °F 30.2 °F 87% 30.45 in 5.0 mi ENE 10.4 mph - N/A   Overcast
10:10 PM 33.8 °F 26.4 °F 30.2 °F 87% 30.45 in 5.0 mi ENE 9.2 mph - N/A   Overcast
10:25 PM 33.8 °F 25.8 °F 30.2 °F 87% 30.45 in 5.6 mi East 10.4 mph - N/A   Overcast
10:55 PM 33.8 °F 26.4 °F 30.2 °F 87% 30.45 in 6.2 mi ENE 9.2 mph - N/A   Overcast
11:25 PM 33.8 °F 27.0 °F 30.2 °F 87% 30.45 in 5.6 mi ENE 8.1 mph - N/A   Overcast
11:55 PM 33.8 °F 27.7 °F 30.2 °F 87% 30.45 in 5.6 mi ENE 6.9 mph - N/A   Overcast